San Antonio, TX

12:18 PM CDT on August 19, 2017 (GMT -0500)
San Antonio International

Weather History for KSAT - March, 2012

Change the Weather History Date:

Saturday, March 31, 2012

  Actual Average Record
Temperature  
Mean Temperature 76 °F 66 °F  
Max Temperature 88 °F 77 °F 93 °F (1946)
Min Temperature 63 °F 54 °F 31 °F (1987)
Degree Days  
Heating Degree Days 0 3  
Month to date heating degree days 77 153  
Since 1 July heating degree days 1130 1455  
Cooling Degree Days 11 3  
Month to date cooling degree days 126 65  
Year to date cooling degree days 169 91  
Growing Degree Days 26 (Base 50)    
Moisture  
Dew Point 66 °F    
Average Humidity 70    
Maximum Humidity 100    
Minimum Humidity 40    
Precipitation  
Precipitation T in 0.06 in 1.08 in (1945)
Month to date precipitation 3.24 2.31  
Year to date precipitation 12.86 5.86  
Snow  
Snow 0.00 in - - ()
Month to date snowfall 0.0  
Since 1 July snowfall T  
Snow Depth 0.00 in    
Sea Level Pressure  
Sea Level Pressure 29.82 in    
Wind  
Wind Speed 8 mph (South)    
Max Wind Speed 17 mph    
Max Gust Speed 21 mph    
Visibility 6 miles    
Events Fog    
T = Trace of Precipitation, MM = Missing Value Source: NWS Daily Summary

Daily Weather History Graph

Daily Weather History Graph

Search for Another Location

Airport or City:

Trip Planner

Search our weather history database for the weather conditions in past years. The results will help you decide how hot, cold, wet, or windy it might be!

Date:

Astronomy

Mar. 31, 2012 Rise Set
Actual Time 7:23 AM CDT 7:52 PM CDT
Civil Twilight 7:00 AM CDT 8:16 PM CDT
Nautical Twilight 6:32 AM CDT 8:44 PM CDT
Astronomical Twilight 6:03 AM CDT 9:12 PM CDT
Moon 1:48 PM CDT (3/31) 2:53 AM CDT (3/31)
Length of Visible Light 13h 15m
Length of Day
12h 28m
First Quarter, 59% of the Moon is Illuminated
Mar 31
First Quarter
Apr 6
Full
Apr 13
Last Quarter
Apr 21
New
Apr 29
First Quarter

Hourly Weather History & Observations

Time (CDT) Temp. Heat Index Dew Point Humidity Pressure Visibility Wind Dir Wind Speed Gust Speed Precip Events Conditions
12:53 AM 71.1 °F - 66.9 °F 87% 29.82 in 10.0 mi SSE 9.2 mph - N/A   Scattered Clouds
1:53 AM 70.0 °F - 66.9 °F 90% 29.81 in 10.0 mi SSW 5.8 mph - N/A   Partly Cloudy
2:53 AM 69.1 °F - 66.0 °F 90% 29.79 in 10.0 mi SSW 3.5 mph - N/A   Clear
3:53 AM 68.0 °F - 66.0 °F 93% 29.78 in 8.0 mi Calm Calm - N/A   Scattered Clouds
4:35 AM 64.4 °F - 64.4 °F 100% 29.82 in 2.5 mi Calm Calm - N/A   Partly Cloudy
4:53 AM 64.0 °F - 64.0 °F 100% 29.78 in 2.5 mi Calm Calm - N/A   Partly Cloudy
4:55 AM 64.4 °F - 64.4 °F 100% 29.83 in 3.0 mi Calm Calm - N/A   Scattered Clouds
5:49 AM 66.2 °F - 66.2 °F 100% 29.85 in 3.0 mi South 4.6 mph - N/A   Mostly Cloudy
5:53 AM 66.9 °F - 66.9 °F 100% 29.80 in 3.0 mi South 5.8 mph - N/A   Mostly Cloudy
6:53 AM 68.0 °F - 66.9 °F 96% 29.80 in 4.0 mi South 4.6 mph - N/A   Overcast
7:13 AM 68.0 °F - 66.2 °F 94% 29.85 in 3.0 mi South 5.8 mph - N/A   Overcast
7:29 AM 68.0 °F - 66.2 °F 94% 29.86 in 0.5 mi South 4.6 mph - N/A   Overcast
7:38 AM 68.0 °F - 66.2 °F 94% 29.86 in 0.1 mi SSW 4.6 mph - 0.00 in Fog Light Drizzle
7:43 AM 68.0 °F - 66.2 °F 94% 29.86 in 0.1 mi SSW 6.9 mph - 0.00 in Fog Light Drizzle
7:51 AM 66.2 °F - 66.2 °F 100% 29.86 in 0.1 mi SW 4.6 mph - 0.00 in Fog Light Drizzle
7:53 AM 66.9 °F - 66.9 °F 100% 29.82 in 0.1 mi SSW 4.6 mph - 0.00 in Fog Light Drizzle
7:58 AM 66.2 °F - 66.2 °F 100% 29.87 in 0.1 mi SW 4.6 mph - 0.00 in Fog Light Drizzle
8:00 AM 66.2 °F - 66.2 °F 100% 29.87 in 0.1 mi WSW 5.8 mph - 0.00 in Fog Light Drizzle
8:09 AM 66.2 °F - 66.2 °F 100% 29.87 in 0.1 mi SW 4.6 mph - 0.00 in Fog Light Drizzle
8:21 AM 66.2 °F - 66.2 °F 100% 29.88 in 0.2 mi WSW 5.8 mph - 0.00 in Fog Light Drizzle
8:32 AM 66.2 °F - 66.2 °F 100% 29.88 in 2.0 mi SW 6.9 mph - 0.00 in   Overcast
8:39 AM 66.2 °F - 66.2 °F 100% 29.88 in 4.0 mi WSW 4.6 mph - 0.00 in   Overcast
8:42 AM 66.2 °F - 66.2 °F 100% 29.88 in 3.0 mi WSW 3.5 mph - 0.00 in   Overcast
8:53 AM 66.9 °F - 66.0 °F 97% 29.84 in 3.0 mi SW 5.8 mph - 0.00 in   Overcast
9:10 AM 66.2 °F - 66.2 °F 100% 29.88 in 4.0 mi SSW 3.5 mph - N/A   Overcast
9:16 AM 68.0 °F - 66.2 °F 94% 29.88 in 5.0 mi SSW 4.6 mph - N/A   Mostly Cloudy
9:53 AM 71.1 °F - 66.0 °F 84% 29.84 in 7.0 mi South 6.9 mph - N/A   Scattered Clouds
10:53 AM 75.0 °F - 66.0 °F 73% 29.85 in 10.0 mi SSE 6.9 mph - N/A   Partly Cloudy
11:53 AM 79.0 °F - 64.0 °F 60% 29.83 in 10.0 mi SW 6.9 mph - N/A   Partly Cloudy
12:53 PM 82.0 °F 83.8 °F 64.9 °F 56% 29.81 in 10.0 mi South 6.9 mph - N/A   Partly Cloudy
1:53 PM 84.9 °F 87.1 °F 66.0 °F 53% 29.79 in 10.0 mi SSE 11.5 mph - N/A   Clear
2:53 PM 87.1 °F 89.2 °F 66.0 °F 49% 29.77 in 10.0 mi SE 9.2 mph - N/A   Partly Cloudy
3:53 PM 88.0 °F 88.7 °F 63.0 °F 43% 29.75 in 10.0 mi SSE 11.5 mph 18.4 mph N/A   Partly Cloudy
4:53 PM 88.0 °F 88.7 °F 63.0 °F 43% 29.74 in 10.0 mi SSE 9.2 mph - N/A   Partly Cloudy
5:53 PM 88.0 °F 87.6 °F 60.1 °F 39% 29.73 in 10.0 mi SSE 10.4 mph - N/A   Scattered Clouds
6:53 PM 82.9 °F 84.4 °F 64.0 °F 53% 29.74 in 10.0 mi SE 15.0 mph - N/A   Scattered Clouds
7:53 PM 80.1 °F 81.9 °F 64.9 °F 60% 29.75 in 10.0 mi SE 11.5 mph - N/A   Scattered Clouds
8:53 PM 79.0 °F - 66.9 °F 66% 29.77 in 10.0 mi SE 12.7 mph - N/A   Scattered Clouds
9:53 PM 75.9 °F - 71.1 °F 85% 29.79 in 10.0 mi SSE 15.0 mph - N/A   Clear
10:53 PM 73.0 °F - 68.0 °F 84% 29.81 in 10.0 mi SE 9.2 mph - N/A   Partly Cloudy
11:53 PM 71.1 °F - 68.0 °F 90% 29.81 in 10.0 mi SSE 10.4 mph - N/A   Partly Cloudy